FW2557 Weather Reports


Display with metric or nautical units.
time (UTC)temp
F
wind
direction
speed
MPH
gust
MPH
rain 1hr
in
rain 24hr
in
rain mn
in
humidity
%
barometer
mb
20260506121550 78 132 2.0 8.0 0.00 0.00 0.00 46 1014.5
20260506120050 78 227 4.0 7.0 0.00 0.00 0.00 43 1014.5
20260506114548 78 139 1.0 7.0 0.00 0.00 0.00 45 1014.7
20260506113039 78 200 2.0 8.0 0.00 0.00 0.00 42 1014.8
20260506111539 77 176 0.0 6.0 0.00 0.00 0.00 41 1015.0
20260506110035 77 231 3.0 6.0 0.00 0.00 0.00 46 1015.2
20260506104536 76 130 2.0 4.0 0.00 0.00 0.00 45 1015.3
20260506103032 75 335 1.0 8.0 0.00 0.00 0.00 49 1015.4
20260506101526 75 343 1.0 5.0 0.00 0.00 0.00 49 1015.5
20260506100025 74 112 0.0 5.0 0.00 0.00 0.00 50 1015.8
20260506094522 74 257 1.0 5.0 0.00 0.00 0.00 50 1016.0
20260506093018 73 173 2.0 5.0 0.00 0.00 0.00 52 1016.1
20260506091520 72 134 1.0 3.0 0.00 0.00 0.00 48 1016.1
20260506090011 71 102 2.0 6.0 0.00 0.00 0.00 49 1016.1
20260506084509 71 89 1.0 6.0 0.00 0.00 0.00 52 1016.2
20260506083005 70 46 1.0 6.0 0.00 0.00 0.00 51 1016.1
20260506081502 69 232 1.0 4.0 0.00 0.00 0.00 51 1016.1
20260506073053 66 103 2.0 4.0 0.00 0.00 0.00 59 1016.2
20260506071556 66 284 0.0 2.0 0.00 0.00 0.00 63 1016.3
20260506061534 59 69 0.0 3.0 0.00 0.00 0.00 78 1016.6
20260506044527 47 240 0.0 3.0 0.00 0.00 0.00 94 1016.7
20260506043014 45 240 0.0 2.0 0.00 0.00 0.00 94 1016.7
20260506041512 44 292 0.0 0.0 0.00 0.00 0.00 94 1016.7
20260506040009 44 292 0.0 1.0 0.00 0.00 0.00 94 1016.6
20260506034508 43 324 0.0 0.0 0.00 0.00 0.00 94 1016.4
20260506033006 43 324 0.0 1.0 0.00 0.00 0.00 94 1016.2
20260506031514 44 257 0.0 0.0 0.00 0.00 0.00 94 1016.1
20260506030000 44 257 0.0 0.0 0.00 0.00 0.00 94 1016.0
20260506024600 44 257 0.0 0.0 0.00 0.00 0.00 94 1015.7
20260506023057 44 257 0.0 0.0 0.00 0.00 0.00 93 1015.8
20260506021600 45 247 0.0 0.0 0.00 0.00 0.00 93 1015.9
20260506020054 45 247 0.0 0.0 0.00 0.00 0.00 94 1015.8
20260506014559 45 247 0.0 0.0 0.00 0.00 0.00 93 1016.0
20260506013054 46 247 0.0 0.0 0.00 0.00 0.00 93 1016.0
20260506011549 46 247 0.0 0.0 0.00 0.00 0.00 93 1015.9
20260506010052 47 247 0.0 0.0 0.00 0.00 0.00 93 1015.8
20260506004550 48 247 0.0 0.0 0.00 0.00 0.00 93 1015.9
20260506003043 48 247 0.0 2.0 0.00 0.00 0.00 92 1015.8
20260506001540 49 44 0.0 0.0 0.00 0.00 0.00 92 1015.9
20260506000040 49 71 0.0 0.0 0.00 0.00 0.00 92 1015.9
20260505234539 49 71 0.0 0.0 0.00 0.00 0.00 92 1016.0
20260505233037 49 78 0.0 0.0 0.00 0.00 0.00 92 1016.0
20260505231536 49 77 0.0 1.0 0.00 0.00 0.00 92 1016.0
20260505230044 49 227 0.0 2.0 0.00 0.00 0.00 91 1016.0
20260505224536 50 208 0.0 0.0 0.00 0.00 0.00 91 1016.1
20260505223029 50 208 0.0 2.0 0.00 0.00 0.00 90 1016.0
20260505221527 51 259 0.0 2.0 0.00 0.00 0.00 89 1015.9
20260505220027 52 279 0.0 0.0 0.00 0.00 0.00 88 1016.0
20260505214523 53 299 1.0 2.0 0.00 0.00 0.00 86 1015.7
20260505213021 54 271 0.0 1.0 0.00 0.00 0.00 86 1015.7
20260505211523 55 269 0.0 2.0 0.00 0.00 0.00 84 1015.5
20260505210022 55 290 1.0 3.0 0.00 0.00 0.00 82 1015.4
20260505204522 55 275 0.0 3.0 0.00 0.00 0.00 84 1015.2
20260505203026 56 257 0.0 3.0 0.00 0.00 0.00 81 1015.2
20260505201519 59 290 0.0 4.0 0.00 0.00 0.00 76 1014.9
20260505200019 56 196 3.0 6.0 0.00 0.00 0.00 81 1014.6
20260505194522 57 178 1.0 3.0 0.00 0.00 0.00 81 1014.5
20260505193017 56 244 1.0 4.0 0.00 0.00 0.00 83 1014.1
20260505191517 56 279 0.0 3.0 0.00 0.00 0.00 84 1013.9
20260505190028 57 184 0.0 2.0 0.00 0.00 0.00 84 1013.8
20260505184523 57 68 0.0 2.0 0.00 0.00 0.00 83 1013.5
20260505183019 58 314 0.0 2.0 0.00 0.00 0.00 81 1013.5
20260505181514 58 229 1.0 2.0 0.00 0.00 0.00 82 1013.4
20260505180013 59 80 0.0 3.0 0.00 0.00 0.00 80 1013.2
20260505174512 61 242 0.0 2.0 0.00 0.00 0.00 76 1013.0
20260505173012 63 300 0.0 2.0 0.00 0.00 0.00 73 1012.9
20260505171511 65 232 0.0 3.0 0.00 0.00 0.00 67 1013.0
20260505170010 67 278 0.0 3.0 0.00 0.00 0.00 62 1012.9
20260505164510 69 264 0.0 1.0 0.00 0.00 0.00 62 1012.8
20260505163009 74 202 0.0 5.0 0.00 0.00 0.00 46 1012.7
20260505161507 76 146 1.0 6.0 0.00 0.00 0.00 39 1012.6
20260505153004 80 153 0.0 5.0 0.00 0.00 0.00 33 1012.6
20260505151502 80 145 2.0 7.0 0.00 0.00 0.00 31 1012.6
20260505124542 81 234 1.0 8.0 0.00 0.00 0.00 30 1013.7
20260505123051 81 84 3.0 8.0 0.00 0.00 0.00 29 1013.7